Stations météo

réclame
Mon MeteoGroup
Durham, Grande-Bretagne (99049): Température de l'air & dewpoint: 20.11.2020 12:00:00 - 26.11.2020 12:00:00 (GMT)Durham, Grande-Bretagne (99049): Température de l'air -20cm & Température de l'air -100cm: 20.11.2020 12:00:00 - 26.11.2020 12:00:00 (GMT)Durham, Grande-Bretagne (99049): Quantités de précipitations: 20.11.2020 12:00:00 - 26.11.2020 12:00:00 (GMT)
Date & Time tt [°C] td [°C] tt -20cm [°C] tt -100cm [°C] rr [mm]
26.11.2020 12:00:00 - - - - -
26.11.2020 11:00:00 7,3 4,3 - - 0,0
26.11.2020 10:00:00 6,4 4,1 - - 0,0
26.11.2020 09:00:00 5,9 4,0 8,4 9,9 0,0
26.11.2020 08:00:00 5,5 3,7 - - 0,0
26.11.2020 07:00:00 5,0 3,6 - - 0,0
26.11.2020 06:00:00 4,7 3,2 - - 0,0
26.11.2020 05:00:00 5,2 3,6 - - 0,0
26.11.2020 04:00:00 4,4 2,8 - - 0,0
26.11.2020 03:00:00 4,4 2,7 - - 0,0
26.11.2020 02:00:00 4,5 2,6 - - 0,0
26.11.2020 01:00:00 4,3 2,4 - - 0,0
26.11.2020 00:00:00 4,1 2,2 - - 0,0
25.11.2020 23:00:00 2,8 1,3 - - 0,0
25.11.2020 22:00:00 2,8 1,3 - - 0,0
25.11.2020 21:00:00 2,6 1,0 - - 0,0
25.11.2020 20:00:00 3,3 1,2 - - 0,0
25.11.2020 19:00:00 3,8 1,4 - - 0,0
25.11.2020 18:00:00 5,6 2,2 - - 0,0
25.11.2020 17:00:00 6,2 2,4 - - 0,0
25.11.2020 16:00:00 6,9 2,4 - - 0,0
25.11.2020 15:00:00 9,2 3,4 - - 0,0
25.11.2020 14:00:00 9,9 4,3 - - 0,0
25.11.2020 13:00:00 9,1 5,1 - - 0,0
25.11.2020 12:00:00 7,6 5,3 - - 0,0
25.11.2020 11:00:00 7,4 5,3 - - 0,0
25.11.2020 10:00:00 6,5 4,8 - - 0,0
25.11.2020 09:00:00 6,0 4,4 8,7 10,0 0,0
25.11.2020 08:00:00 6,2 4,5 - - 0,0
25.11.2020 07:00:00 6,3 4,6 - - 0,0
25.11.2020 06:00:00 6,5 4,9 - - 0,2
25.11.2020 05:00:00 6,8 5,2 - - 0,2
25.11.2020 04:00:00 7,5 6,0 - - 0,2
25.11.2020 03:00:00 8,0 6,2 - - 0,6
25.11.2020 02:00:00 9,6 7,3 - - 0,0
25.11.2020 01:00:00 9,9 7,5 - - 0,0
25.11.2020 00:00:00 8,9 6,6 - - 0,0
24.11.2020 23:00:00 9,8 7,1 - - 0,0
24.11.2020 22:00:00 9,9 7,1 - - 0,0
24.11.2020 21:00:00 9,3 6,5 - - 0,0
24.11.2020 20:00:00 9,4 6,4 - - 0,0
24.11.2020 19:00:00 9,4 6,3 - - 0,0
24.11.2020 18:00:00 9,3 6,2 - - 0,0
24.11.2020 17:00:00 9,3 6,4 - - 0,0
24.11.2020 16:00:00 10,1 6,4 - - 0,0
24.11.2020 15:00:00 10,3 6,9 - - 0,0
24.11.2020 14:00:00 10,6 6,9 - - 0,0
24.11.2020 13:00:00 - - - - 0,0
24.11.2020 12:00:00 - - - - 0,0
24.11.2020 11:00:00 11,7 7,8 - - 0,0
24.11.2020 10:00:00 11,3 7,6 - - 0,0
24.11.2020 09:00:00 11,2 7,9 - - 0,0
24.11.2020 08:00:00 11,2 8,0 - - 0,0
24.11.2020 07:00:00 11,1 8,3 - - 0,0
24.11.2020 06:00:00 11,1 8,5 - - 0,0
24.11.2020 05:00:00 11,2 8,8 - - 0,0
24.11.2020 04:00:00 11,7 8,7 - - 0,0
24.11.2020 03:00:00 11,5 8,4 - - 0,0
24.11.2020 02:00:00 11,6 8,1 - - 0,0
24.11.2020 01:00:00 11,5 8,2 - - 0,0
24.11.2020 00:00:00 11,6 8,1 - - 0,0
23.11.2020 23:00:00 10,8 7,8 - - 0,0
23.11.2020 22:00:00 10,4 7,6 - - 0,0
23.11.2020 21:00:00 9,9 7,4 - - 0,0
23.11.2020 20:00:00 9,5 7,3 - - 0,0
23.11.2020 19:00:00 8,7 6,5 - - 0,0
23.11.2020 18:00:00 - - - - 0,0
23.11.2020 17:00:00 8,0 6,0 - - 0,0
23.11.2020 16:00:00 8,1 5,4 - - 0,0
23.11.2020 15:00:00 8,1 4,7 - - 0,0
23.11.2020 14:00:00 7,1 3,8 - - 0,0
23.11.2020 13:00:00 6,4 3,5 - - 0,0
23.11.2020 12:00:00 6,0 3,4 - - 0,0
23.11.2020 11:00:00 6,6 3,6 - - 0,0
23.11.2020 10:00:00 4,5 2,9 - - 0,0
23.11.2020 09:00:00 3,7 2,2 - - 0,0
23.11.2020 08:00:00 3,5 1,7 - - 0,0
23.11.2020 07:00:00 3,7 2,0 - - 0,0
23.11.2020 06:00:00 3,7 1,7 - - 0,0
23.11.2020 05:00:00 3,4 1,8 - - 0,0
23.11.2020 04:00:00 3,5 2,0 - - 0,0
23.11.2020 03:00:00 3,3 1,5 - - 0,0
23.11.2020 02:00:00 2,5 1,0 - - 0,0
23.11.2020 01:00:00 3,1 1,4 - - 0,0
23.11.2020 00:00:00 3,7 1,8 - - 0,0
22.11.2020 23:00:00 3,8 1,9 - - 0,0
22.11.2020 22:00:00 3,6 1,4 - - 0,0
22.11.2020 21:00:00 4,5 1,8 - - 0,0
22.11.2020 20:00:00 5,0 1,6 - - 0,0
22.11.2020 19:00:00 5,4 1,5 - - 0,0
22.11.2020 18:00:00 5,9 1,6 - - 0,0
22.11.2020 17:00:00 5,4 1,6 - - 0,0
22.11.2020 16:00:00 6,3 2,1 - - 0,0
22.11.2020 15:00:00 7,0 1,8 - - 0,0
22.11.2020 14:00:00 8,7 2,3 - - 0,0
22.11.2020 13:00:00 8,2 2,5 - - 0,0
22.11.2020 12:00:00 7,7 2,8 - - 0,0
22.11.2020 11:00:00 7,5 2,8 - - 0,0
22.11.2020 10:00:00 6,5 2,3 - - 0,0
22.11.2020 09:00:00 5,2 1,8 - - 0,0
22.11.2020 08:00:00 6,0 1,9 - - 0,0
22.11.2020 07:00:00 6,2 1,9 - - 0,0
22.11.2020 06:00:00 5,8 1,9 - - 0,0
22.11.2020 05:00:00 6,2 1,7 - - 0,0
22.11.2020 04:00:00 6,3 1,3 - - 0,0
22.11.2020 03:00:00 6,7 1,6 - - 0,0
22.11.2020 02:00:00 6,8 1,8 - - 0,0
22.11.2020 01:00:00 7,0 2,1 - - 0,0
22.11.2020 00:00:00 7,4 2,4 - - 0,0
21.11.2020 23:00:00 7,2 2,3 - - 0,0
21.11.2020 22:00:00 7,0 2,9 - - 0,0
21.11.2020 21:00:00 7,5 3,9 - - 0,0
21.11.2020 20:00:00 7,8 4,3 - - 0,0
21.11.2020 19:00:00 9,2 4,1 - - 0,0
21.11.2020 18:00:00 9,3 4,1 - - 0,0
21.11.2020 17:00:00 9,4 3,8 - - 0,0
21.11.2020 16:00:00 9,5 3,8 - - 0,0
21.11.2020 15:00:00 10,7 4,5 - - 0,0
21.11.2020 14:00:00 10,9 4,9 - - 0,0
21.11.2020 13:00:00 11,5 5,7 - - 0,0
21.11.2020 12:00:00 10,3 7,4 - - 0,2
21.11.2020 11:00:00 10,4 7,9 - - 0,2
21.11.2020 10:00:00 11,5 8,1 - - 0,0
21.11.2020 09:00:00 11,2 7,9 8,9 10,4 0,0
21.11.2020 08:00:00 11,1 7,8 - - 0,0
21.11.2020 07:00:00 11,1 8,0 - - 0,0
21.11.2020 06:00:00 11,2 8,2 - - 0,0
21.11.2020 05:00:00 11,2 8,7 - - 0,0
21.11.2020 04:00:00 11,7 8,4 - - 0,0
21.11.2020 03:00:00 11,7 8,4 - - 0,0
21.11.2020 02:00:00 11,8 8,5 - - 0,0
21.11.2020 01:00:00 11,7 8,7 - - 0,0
21.11.2020 00:00:00 11,8 8,8 - - 0,0
20.11.2020 23:00:00 11,6 8,8 - - 0,0
20.11.2020 22:00:00 11,8 8,9 - - 0,0
20.11.2020 21:00:00 11,7 8,8 - - 0,0
20.11.2020 20:00:00 11,7 9,1 - - 0,0
20.11.2020 19:00:00 11,8 9,4 - - 0,0
20.11.2020 18:00:00 10,9 9,7 - - 0,0
20.11.2020 17:00:00 8,6 8,1 - - 0,0
20.11.2020 16:00:00 8,3 7,4 - - 0,2
20.11.2020 15:00:00 7,6 6,4 - - 0,0
20.11.2020 14:00:00 7,1 6,0 - - 0,0
20.11.2020 13:00:00 6,0 5,1 - - 0,0
20.11.2020 12:00:00 5,1 3,9 - - 0,0

tt = Température de l'air
td = dewpoint
tt -20cm = Température de l'air -20cm
tt -100cm = Température de l'air -100cm
rr = Quantités de précipitations

stations d'obs. à proximité